Terug naar catalogus

COSMOS 2251 DEB

ActiefLEO
NORAD 35667·DEBRIS·🇷🇺 Russia

Gelanceerd Jun 16, 1993 vanaf Plesetsk Cosmodrome

Loading…

Volgende Passages (komende 24 uur)

TLE

VerouderdSource: Space-Track

Epoch: Sep 1, 2026, 13:58 UTC

1 35667U 93036APJ 26244.58243237  .00002248  00000-0  45165-3 0  9990
2 35667  74.0572 358.1298 0020099 347.8741  12.1939 14.62126263746425

Volg COSMOS 2251 DEB in realtime met AllMySat

Download on the App Store